This is the latest recevied weather packets stored in our database for station/object KP4OZ. If no packets are shown the sender has not sent any weather packets the latest 1 day(s).
| Time | Temp. | Humidity | Pressure | Rain* | Wind** | Luminosity | Snow |
|---|---|---|---|---|---|---|---|
| 1778017559 | 31.67° C | 54% | 1016 hPa | 0 mm | 0.89 m/s, 95° | - | - |
| 1778017256 | 31.67° C | 54% | 1016.1 hPa | 0 mm | 2.24 m/s, 123° | - | - |
| 1778016954 | 31.67° C | 53% | 1016.1 hPa | 0 mm | 1.79 m/s, 116° | - | - |
| 1778016650 | 32.22° C | 52% | 1016.1 hPa | 0 mm | 1.79 m/s, 203° | - | - |
| 1778016346 | 32.22° C | 52% | 1015.8 hPa | 0 mm | 2.68 m/s, 127° | - | - |
| 1778016044 | 32.22° C | 52% | 1015.7 hPa | 0 mm | 1.79 m/s, 153° | - | - |
| 1778015740 | 32.22° C | 52% | 1015.6 hPa | 0 mm | 1.79 m/s, 242° | - | - |
| 1778015437 | 32.22° C | 52% | 1015.8 hPa | 0 mm | 1.79 m/s, 153° | - | - |
| 1778015134 | 32.78° C | 52% | 1015.4 hPa | 0 mm | 2.68 m/s, 142° | - | - |
| 1778014831 | 32.78° C | 51% | 1015.2 hPa | 0 mm | 2.24 m/s, 99° | - | - |
| 1778014529 | 32.78° C | 51% | 1015.5 hPa | 0 mm | 2.24 m/s, 140° | - | - |
| 1778014226 | 32.78° C | 50% | 1015.4 hPa | 0 mm | 1.34 m/s, 139° | - | - |
| 1778013924 | 32.78° C | 50% | 1015.3 hPa | 0 mm | 2.24 m/s, 142° | - | - |
| 1778013621 | 32.78° C | 49% | 1015.3 hPa | 0 mm | 3.58 m/s, 109° | - | - |
| 1778013317 | 32.78° C | 49% | 1015.2 hPa | 0 mm | 3.13 m/s, 164° | - | - |
| 1778013014 | 33.33° C | 49% | 1015.2 hPa | 0 mm | 5.36 m/s, 177° | - | - |
| 1778012710 | 33.33° C | 48% | 1015.4 hPa | 0 mm | 2.68 m/s, 177° | - | - |
| 1778012406 | 33.33° C | 50% | 1015.2 hPa | 0 mm | 1.34 m/s, 155° | - | - |
| 1778012104 | 33.33° C | 49% | 1015.3 hPa | 0 mm | 2.68 m/s, 79° | - | - |
| 1778011801 | 33.33° C | 49% | 1015.3 hPa | 0 mm | 2.68 m/s, 92° | - | - |
| 1778011499 | 33.33° C | 49% | 1015.5 hPa | 0 mm | 2.24 m/s, 129° | - | - |
| 1778011194 | 33.33° C | 50% | 1015.3 hPa | 0 mm | 1.79 m/s, 110° | - | - |
| 1778010892 | 33.89° C | 47% | 1015.4 hPa | 0 mm | 1.79 m/s, 59° | - | - |
| 1778010589 | 33.33° C | 50% | 1015.4 hPa | 0 mm | 1.34 m/s, 148° | - | - |
| 1778010286 | 33.33° C | 50% | 1015.6 hPa | 0 mm | 2.68 m/s, 173° | - | - |
* Rain latest hour (hover to see other rain measurements)
** Current wind speed in m/s (hover to see current wind gust speed)